Hourly Data Report for November 04, 2017

All times are specified in Local Standard Time (LST). Add 1 hour to adjust for Daylight Saving Time where and when it is observed.

MAYO A
YUKON TERRITORY

63°36'59.000" N
135°52'06.000" W
503.80 m
2100701
71965
YMA

Download Data

Hourly Data (November 2017)
Hourly Data Report for November 4, 2017
Temp Definition
°C
Dew Point Temp Definition
°C
Rel Hum Definition
%
Wind Dir Definition
10's deg

Wind Spd Definition
km/h
Visibility Definition
km
Stn Press Definition
kPa
Hmdx Definition


Wind Chill Definition


Weather Definition


TIME
00:00 Legend Double Dagger -13.1 -14.8 87 36 3 32.2 96.67   -15 LegendNANA
01:00 Legend Double Dagger -13.9 -15.6 87 36 1 32.2 96.73   -15 Mainly Clear
02:00 Legend Double Dagger -15.2 -17.0 86 0 1 32.2 96.76   -16 LegendNANA
03:00 Legend Double Dagger -16.4 -18.1 87 36 3 32.2 96.79   -19 LegendNANA
04:00 Legend Double Dagger -17.7 -19.9 83 9 6 32.2 96.83   -22 Clear
05:00 Legend Double Dagger -17.6 -19.6 85 35 3 32.2 96.84   -20 LegendNANA
06:00 Legend Double Dagger -18.4 -20.7 83 7 4 32.2 96.84   -22 LegendNANA
07:00 Legend Double Dagger -18.5 -20.6 83 13 3 32.2 96.90   -21 Mainly Clear
08:00 Legend Double Dagger -17.4 -19.3 86 29 4 32.2 96.92   -21 LegendNANA
09:00 Legend Double Dagger -18.6 -20.9 83 36 1 32.2 96.96   -19 LegendNANA
10:00 Legend Double Dagger -18.8 -21.1 82 5 3 32.2 96.98   -21 Mainly Clear
11:00 Legend Double Dagger -15.9 -17.9 85 36 2 32.2 97.00   -17 LegendNANA
12:00 Legend Double Dagger -12.7 -14.2 89 36 2 32.2 96.99   -14 LegendNANA
13:00 Legend Double Dagger -10.1 -11.7 88 34 3 32.2 96.98   -12 Clear
14:00 Legend Double Dagger -7.7 -8.7 92 9 3 32.2 96.96   -9 LegendNANA
15:00 Legend Double Dagger -8.1 -9.3 91 6 3 32.2 96.93   -10 LegendNANA
16:00 Legend Double Dagger -9.4 -10.7 90 29 3 32.2 96.90   -11 Clear
17:00 Legend Double Dagger -11.1 -12.4 90 28 4 32.2 96.89   -14 LegendNANA
18:00 Legend Double Dagger -14.1 -15.8 87 28 3 32.2 96.86   -16 LegendNANA
19:00 Legend Double Dagger -15.7 -17.6 86 26 3 32.2 96.82   -18 Clear
20:00 Legend Double Dagger -12.7 -14.3 88 35 12 32.2 96.80   -19 LegendNANA
21:00 Legend Double Dagger -13.8 -15.6 86 36 5 32.2 96.81   -17 LegendNANA
22:00 Legend Double Dagger -16.8 -18.8 85 36 3 32.2 96.79   -19 Mostly Cloudy
23:00 Legend Double Dagger -12.9 -14.5 89 1 5 32.2 96.75   -16 LegendNANA

Notes on Data Quality.

Legend

  • E = Estimated
  • M = Missing
  • NA = Not Available
  • ‡ = Partner data that is not subject to review by the National Climate Archives
Date modified: